sat.trackr.live / text

‹ back to catalog

STARLINK-32352

NORAD 61847 · 2024-202C

PAYLOAD ACTIVE UNKNOWN

§ Identity

Operator
Country
US
Launch date
2024-11-07
Launch site
AFETR
Launch vehicle
Mass (kg)
RCS (m²)

Purposes: comms

External: N2YO · Heavens-Above · Gunter

§ Orbital elements

Epoch: 2026-09-21T13:22:22.881792Z

Period
94.27 min
Inclination
43.0029°
Eccentricity
0.0001324
Mean motion
15.27574574 rev/d
Perigee alt
482.2 km
Apogee alt
484.0 km
Semi-major
6,861.2 km
B*
1.1521e-5
RAAN
200.5357°
Arg perigee
265.7339°
Mean anomaly
94.3361°
Rev number
10,542

§ Raw data

STARLINK-323521 61847U 24202C   26264.55720928  .00000055  00000+0  11521-4 0  99972 61847  43.0029 200.5357 0001324 265.7339  94.3361 15.27574574105428

JSON: /api/v1/satellites/61847 · /tle

For live sub-satellite position, see the globe view (requires WebGL).

§ Visibility from observer

Set your observer location to see the next 7 days of passes ≥ 10°. The values pass through the URL so the page stays shareable.

No JS? Fill the form by hand. The geolocation button needs JavaScript.